Pontiac, MI

3:16 PM EDT on September 19, 2017 (GMT -0400)
Oakland County International

Weather History for KPTK - October, 2011

Change the Weather History Date:

Sunday, October 30, 2011

  Actual Average Record
Temperature  
Mean Temperature 38 °F -  
Max Temperature 50 °F 52 °F 73 °F (1999)
Min Temperature 26 °F 36 °F 25 °F (2008)
Degree Days  
Heating Degree Days 27    
Moisture  
Dew Point 30 °F    
Average Humidity 83    
Maximum Humidity 100    
Minimum Humidity 44    
Precipitation  
Precipitation 0.01 in - - ()
Sea Level Pressure  
Sea Level Pressure 30.15 in    
Wind  
Wind Speed 1 mph (South)    
Max Wind Speed 12 mph    
Max Gust Speed 16 mph    
Visibility 5 miles    
Events Fog , Rain    
Averages and records for this station are not official NWS values.
T = Trace of Precipitation, MM = Missing Value Source: NWS Daily Summary

Daily Weather History Graph

Daily Weather History Graph

Search for Another Location

Airport or City:

Trip Planner

Search our weather history database for the weather conditions in past years. The results will help you decide how hot, cold, wet, or windy it might be!

Date:

Astronomy

Oct. 30, 2011 Rise Set
Actual Time 8:04 AM EDT 6:29 PM EDT
Civil Twilight 7:35 AM EDT 6:58 PM EDT
Nautical Twilight 7:02 AM EDT 7:31 PM EDT
Astronomical Twilight 6:29 AM EDT 8:04 PM EDT
Moon 12:27 PM EDT (10/30) 9:53 PM EDT (10/30)
Length of Visible Light 11h 23m
Length of Day
10h 24m
Waxing Crescent, 20% of the Moon is Illuminated
Oct 30
Waxing Crescent
Nov 2
First Quarter
Nov 10
Full
Nov 18
Last Quarter
Nov 25
New

Hourly Weather History & Observations

Time (EDT) Temp. Windchill Dew Point Humidity Pressure Visibility Wind Dir Wind Speed Gust Speed Precip Events Conditions
12:53 AM 34.0 °F - 33.1 °F 96% 30.12 in 5.0 mi Calm Calm - N/A   Clear
1:53 AM 34.0 °F - 30.9 °F 89% 30.13 in 6.0 mi Calm Calm - N/A   Clear
2:53 AM 32.0 °F - 30.9 °F 96% 30.14 in 4.0 mi Calm Calm - N/A   Clear
3:06 AM 30.2 °F - 30.2 °F 100% 30.11 in 1.8 mi Calm Calm - N/A   Clear
3:16 AM 30.2 °F - 30.2 °F 100% 30.12 in 0.8 mi Calm Calm - N/A   Clear
3:25 AM 32.0 °F - 30.2 °F 93% 30.12 in 1.5 mi Calm Calm - N/A   Clear
3:30 AM 30.2 °F - 30.2 °F 100% 30.12 in 3.0 mi Calm Calm - N/A   Clear
3:53 AM 28.9 °F - 28.0 °F 96% 30.15 in 3.0 mi Calm Calm - N/A   Clear
3:55 AM 28.4 °F - 28.4 °F 100% 30.12 in 1.2 mi Calm Calm - N/A   Clear
4:03 AM 28.4 °F - 28.4 °F 100% 30.13 in 0.8 mi Calm Calm - N/A   Clear
4:07 AM 30.2 °F - 28.4 °F 93% 30.13 in 2.5 mi Calm Calm - N/A   Clear
4:14 AM 30.2 °F - 28.4 °F 93% 30.13 in 7.0 mi Calm Calm - N/A   Clear
4:43 AM 28.4 °F - 26.6 °F 93% 30.13 in 1.5 mi Calm Calm - N/A   Clear
4:53 AM 28.0 °F - 27.0 °F 96% 30.15 in 0.5 mi Calm Calm - N/A Fog Light Freezing Fog
5:06 AM 30.2 °F - 28.4 °F 93% 30.13 in 2.5 mi Calm Calm - N/A   Clear
5:13 AM 30.2 °F - 28.4 °F 93% 30.13 in 6.0 mi Calm Calm - N/A   Clear
5:48 AM 28.4 °F - 26.6 °F 93% 30.14 in 2.0 mi Calm Calm - N/A   Clear
5:53 AM 28.9 °F - 27.0 °F 92% 30.17 in 4.0 mi Calm Calm - N/A   Clear
6:02 AM 28.4 °F - 26.6 °F 93% 30.14 in 0.5 mi Calm Calm - N/A Fog Light Freezing Fog
6:16 AM 28.4 °F - 26.6 °F 93% 30.15 in 0.2 mi Calm Calm - N/A Fog Light Freezing Fog
6:34 AM 28.4 °F - 26.6 °F 93% 30.15 in 0.2 mi Calm Calm - N/A Fog Light Freezing Fog
6:53 AM 28.0 °F - 27.0 °F 96% 30.17 in 0.2 mi Calm Calm - N/A Fog Light Freezing Fog
7:33 AM 26.6 °F - 26.6 °F 100% 30.16 in 0.2 mi Calm Calm - N/A Fog Light Freezing Fog
7:48 AM 28.4 °F - 26.6 °F 93% 30.17 in 0.5 mi Calm Calm - N/A Fog Light Freezing Fog
7:53 AM 28.0 °F - 27.0 °F 96% 30.19 in 0.8 mi Calm Calm - N/A   Mostly Cloudy
8:09 AM 26.6 °F - 24.8 °F 93% 30.17 in 1.0 mi Calm Calm - N/A   Scattered Clouds
8:27 AM 26.6 °F - 26.6 °F 100% 30.17 in 3.0 mi Calm Calm - N/A   Scattered Clouds
8:53 AM 28.4 °F - 28.4 °F 100% 30.19 in 5.0 mi Calm Calm - N/A   Scattered Clouds
9:53 AM 34.0 °F - 33.1 °F 96% 30.22 in 6.0 mi Calm Calm - N/A   Scattered Clouds
10:53 AM 44.1 °F 41.5 °F 36.0 °F 73% 30.22 in 10.0 mi SSW 4.6 mph - N/A   Scattered Clouds
11:53 AM 46.9 °F - 33.1 °F 59% 30.21 in 10.0 mi SSW 8.1 mph - N/A   Mostly Cloudy
12:53 PM 46.9 °F - 30.9 °F 54% 30.20 in 10.0 mi SSW 5.8 mph 16.1 mph N/A   Overcast
1:53 PM 48.9 °F - 30.0 °F 48% 30.18 in 10.0 mi South 11.5 mph - N/A   Overcast
2:53 PM 50.0 °F - 28.9 °F 44% 30.16 in 10.0 mi South 10.4 mph - N/A   Overcast
3:53 PM 48.9 °F - 28.9 °F 46% 30.14 in 10.0 mi South 9.2 mph - N/A   Overcast
4:53 PM 48.9 °F - 30.0 °F 48% 30.14 in 10.0 mi South 8.1 mph 16.1 mph N/A   Overcast
5:53 PM 48.9 °F - 30.9 °F 50% 30.13 in 10.0 mi South 6.9 mph - N/A   Overcast
6:53 PM 48.2 °F - 32.0 °F 54% 30.10 in 10.0 mi SSE 11.5 mph - N/A   Overcast
7:53 PM 46.9 °F - 33.1 °F 59% 30.14 in 10.0 mi South 6.9 mph - N/A   Overcast
8:53 PM 46.9 °F - 33.1 °F 59% 30.14 in 10.0 mi SSE 5.8 mph - N/A   Overcast
9:53 PM 46.0 °F 41.9 °F 35.1 °F 66% 30.13 in 10.0 mi SSE 8.1 mph - 0.00 in   Mostly Cloudy
10:53 PM 46.9 °F - 35.1 °F 63% 30.14 in 10.0 mi South 8.1 mph - 0.00 in Rain Light Rain
11:53 PM 45.0 °F 41.2 °F 37.9 °F 76% 30.12 in 10.0 mi South 6.9 mph - 0.01 in Rain Light Rain